Location: ??????
(56.0120°N, 39.1740°E)
Time: 05:19:29
(UTC+00:00)

Cosmos 1627 Rocket - Pass Details

Date: 14 April 2026
Orbit: 950 x 1002 km, 82.9° (Epoch: 10 May)

Event Time Altitude Azimuth Distance (km) Brightness Sun altitude
Rises 23:23:53 0° 347° (NNW) 3,661 8.2 -19.7°
Reaches altitude 10° 23:26:23 10° 345° (NNW) 2,717 7.4 -19.5°
Maximum altitude 23:32:33 68° 264° (W) 1,047 4.5 -19.0°
Enters shadow 23:36:01 28° 189° (S) 1,764 5.3 -18.8°
